This demonstration page uses our WeatherBlox Daily Observations layout. Learn more.

Left ArrowRight Arrow

34.16533, -84.80231

Hourly Observations for September 21, 2017

Temp ( °F °C ) Dew Point ( °F °C ) Humidity (%) Winds ( mph kmh ) Pressure ( in mb ) Visibility ( mi km ) Precip ( " mm )
12:53 am 00:53 Clear 67 19.4 67 19.4 100 100 Calm 30.01 1016 7 11 0.00 0.00
1:53 am 01:53 Clear 66 18.9 66 18.9 100 100 Calm 30.01 1016 8 13 0.00 0.00
2:53 am 02:53 Clear 65 18.3 65 18.3 100 100 Calm 30.00 1016 7 11 0.00 0.00
3:53 am 03:53 Clear with Mist and Fog 64 17.8 64 17.8 100 100 Calm 30.01 1016 5 8 0.00 0.00
4:53 am 04:53 Clear 64 17.8 64 17.8 100 100 Calm 30.01 1016 7 11 0.00 0.00
5:34 am 05:34 Partly Cloudy 64 17.8 64 17.8 100 100 Calm 30.03 1017 7 11 0.00 0.00
5:43 am 05:43 Mostly Cloudy 64 17.8 64 17.8 100 100 Calm 30.03 1017 7 11 0.00 0.00
5:53 am 05:53 Cloudy 64 17.8 64 17.8 100 100 Calm 30.03 1017 7 11 0.00 0.00
6:30 am 06:30 Partly Cloudy 64 17.8 64 17.8 100 100 Calm 30.06 1018 7 11 0.00 0.00
6:39 am 06:39 Mostly Cloudy 64 17.8 64 17.8 100 100 Calm 30.06 1018 8 13 0.00 0.00
6:53 am 06:53 Cloudy 64 17.8 64 17.8 100 100 Calm 30.05 1018 9 14 0.00 0.00
7:53 am 07:53 Cloudy 64 17.8 64 17.8 100 100 Calm 30.06 1018 8 13 0.00 0.00
7:58 am 07:58 Cloudy with Mist and Fog 65 18.3 65 18.3 100 100 Calm 30.06 1018 2 2 0.00 0.00
8:02 am 08:02 Cloudy with Fog 65 18.3 65 18.3 100 100 Calm 30.06 1018 0 0 0.00 0.00
8:33 am 08:33 Mostly Cloudy with Mist and Fog 66 18.9 66 18.9 100 100 Calm 30.06 1018 1 2 0.00 0.00
8:39 am 08:39 Cloudy with Mist and Fog 66 18.9 66 18.9 100 100 Calm 30.06 1018 3 5 0.00 0.00
8:53 am 08:53 Partly Cloudy with Mist and Fog 67 19.4 67 19.4 100 100 Calm 30.07 1018 5 8 0.00 0.00
9:53 am 09:53 Sunny 73 22.8 69 20.6 87 87 Calm 30.07 1018 10 16 0.00 0.00
10:53 am 10:53 Sunny 80 26.7 69 20.6 69 69 N 3 6 30.06 1018 10 16 0.00 0.00
11:53 am 11:53 Sunny 83 28.3 69 20.6 63 63 Calm 30.06 1018 10 16 0.00 0.00
12:53 pm 12:53 Sunny 86 30 68 20 55 55 Calm 30.05 1018 10 16 0.00 0.00
1:53 pm 13:53 Sunny 89 31.7 67 19.4 48 48 VRB 6 9 30.02 1017 10 16 0.00 0.00
2:53 pm 14:53 Mostly Sunny 90 32.2 66 18.9 45 45 NNE 7 11 30.00 1016 10 16 0.00 0.00
3:53 pm 15:53 Sunny 90 32.2 65 18.3 44 44 VRB 3 6 29.98 1015 10 16 0.00 0.00
4:53 pm 16:53 Sunny 90 32.2 66 18.9 45 45 N 8 13 29.96 1015 10 16 0.00 0.00
5:53 pm 17:53 Sunny 84 28.9 70 21.1 63 63 ENE 3 6 29.96 1015 10 16 0.00 0.00
6:53 pm 18:53 Sunny 82 27.8 71 21.7 69 69 Calm 29.97 1015 10 16 0.00 0.00
7:53 pm 19:53 Clear 74 23.3 73 22.8 97 97 Calm 29.97 1015 10 16 0.00 0.00
8:53 pm 20:53 Clear 71 21.7 71 21.7 100 100 Calm 30.00 1016 10 16 0.00 0.00
9:53 pm 21:53 Clear 70 21.1 70 21.1 100 100 Calm 30.01 1016 8 13 0.00 0.00
10:53 pm 22:53 Clear 71 21.7 71 21.7 100 100 Calm 30.01 1016 9 14 0.00 0.00
11:53 pm 23:53 Clear 69 20.6 69 20.6 100 100 Calm 30.01 1016 8 13 0.00 0.00

Powered by AerisWeather